STARLINK-35904

Last updated on Wed Dec 31 2025 00:02:06 GMT+0000 (Coordinated Universal Time)

1 66627U 25271L 25364.53841201 .00090266 00000+0 22404-2 0 9994 2 66627 53.1614 102.9607 0001352 72.9497 287.1656 15.39614720 6912
UTC large
Height (km)
Speed (km/s)
/
Latitude / Longitude
Inclination (degrees)
Orbital Period (minutes)
Azimuth
Elevation
Range (km)
Doppler Factor

Next 0 passes for location: London (51.5072 / 0.1276)

Sorry there are no passes over London.